Location: Newark
(42.7133°N, 87.7910°W)
Time: 00:18:59
(UTC+00:00)

Vanguard 1 - Pass Details

Date: 20 September 2019
Orbit: 653 x 3830 km, 34.3° (Epoch: 14 October)

Event Time Altitude Azimuth Distance (km) Brightness Sun altitude
Rises 11:25:20 0° 268° (W) 7,890 - -2.8°
Exits shadow 11:26:56 - 268° (W) 7,563 13.9 -2.5°
Reaches altitude 10° 11:31:09 10° 266° (W) 6,668 13.6 -1.7°
Maximum altitude 11:50:51 59° 194° (SSW) 2,845 12.4 1.9°
Drops below altitude 10° 12:02:03 10° 118° (ESE) 4,010 14.5 3.9°
Sets 12:04:37 0° 114° (ESE) 4,682 15.1 4.4°
